TimeMDT,TemperatureF,Dew PointF,Humidity,Sea Level PressureIn,VisibilityMPH,Wind Direction,Wind SpeedMPH,Gust SpeedMPH,PrecipitationIn,Events,Conditions,WindDirDegrees,DateUTC
12:51 AM,50.0,41.0,71,29.79,10.0,SE,16.1,-,0.00,Rain,Light Rain,130,2013-09-29 06:51:00
1:27 AM,51.8,39.2,62,29.81,9.0,South,12.7,27.6,0.01,Rain,Light Rain,170,2013-09-29 07:27:00
1:51 AM,51.1,39.9,66,29.74,10.0,SSE,16.1,23.0,0.02,Rain,Light Rain,150,2013-09-29 07:51:00
2:51 AM,48.9,42.1,77,29.72,10.0,South,9.2,21.9,0.03,Rain,Light Rain,190,2013-09-29 08:51:00
3:51 AM,51.1,39.9,66,29.72,10.0,SSW,20.7,27.6,0.05,Rain,Light Rain,200,2013-09-29 09:51:00
4:51 AM,53.1,37.0,55,29.70,10.0,South,24.2,40.3,0.00,,Overcast,190,2013-09-29 10:51:00
5:51 AM,54.0,35.1,49,29.67,10.0,SSW,23.0,36.8,N/A,,Overcast,200,2013-09-29 11:51:00
6:51 AM,53.1,34.0,48,29.70,10.0,SSW,24.2,35.7,N/A,,Overcast,200,2013-09-29 12:51:00
7:51 AM,46.9,39.0,74,29.73,10.0,South,17.3,31.1,0.00,Rain,Light Rain,190,2013-09-29 13:51:00
8:51 AM,45.0,39.9,82,29.75,8.0,West,6.9,-,0.02,Rain,Light Rain,270,2013-09-29 14:51:00
9:10 AM,44.6,41.0,87,29.80,5.0,West,6.9,-,0.01,Rain,Light Rain,280,2013-09-29 15:10:00
9:51 AM,42.1,37.9,85,29.79,8.0,West,6.9,-,0.06,Rain,Rain,280,2013-09-29 15:51:00
10:24 AM,41.0,35.6,81,29.83,4.0,West,15.0,21.9,0.07,Rain,Rain,270,2013-09-29 16:24:00
10:41 AM,39.2,37.4,93,29.83,2.5,West,9.2,-,0.11,Rain,Rain,260,2013-09-29 16:41:00
10:51 AM,39.9,37.0,89,29.82,3.0,West,5.8,-,0.14,Rain,Light Rain,270,2013-09-29 16:51:00
11:51 AM,41.0,37.0,86,29.83,8.0,Calm,Calm,-,0.07,Rain,Light Rain,0,2013-09-29 17:51:00
12:38 PM,41.0,37.4,87,29.86,5.0,SSE,3.5,-,0.09,Rain,Rain,150,2013-09-29 18:38:00
12:45 PM,41.0,35.6,81,29.86,3.0,SW,8.1,-,0.11,Rain,Rain,220,2013-09-29 18:45:00
12:51 PM,41.0,36.0,82,29.83,3.0,South,10.4,-,0.13,Rain,Rain,180,2013-09-29 18:51:00
1:43 PM,39.2,35.6,87,29.87,6.0,South,6.9,-,0.10,Rain,Light Rain,180,2013-09-29 19:43:00
1:51 PM,39.9,35.1,83,29.84,6.0,SSE,8.1,-,0.11,Rain,Rain,160,2013-09-29 19:51:00
2:51 PM,37.9,34.0,86,29.85,5.0,SSE,8.1,-,0.13,Rain,Rain,150,2013-09-29 20:51:00
2:57 PM,37.4,35.6,93,29.86,5.0,SSE,9.2,-,0.01,Rain,Rain,150,2013-09-29 20:57:00
3:12 PM,37.4,35.6,93,29.86,8.0,SSE,9.2,-,0.03,Rain,Light Rain,160,2013-09-29 21:12:00
3:20 PM,37.4,35.6,93,29.87,8.0,South,10.4,-,0.04,Rain,Light Rain,170,2013-09-29 21:20:00
3:22 PM,37.4,35.6,93,29.86,8.0,SSE,10.4,-,0.05,Rain,Light Rain,160,2013-09-29 21:22:00
3:51 PM,37.9,35.1,89,29.84,7.0,South,9.2,-,0.08,Rain,Light Rain,170,2013-09-29 21:51:00
3:59 PM,37.4,35.6,93,29.86,9.0,SE,8.1,-,0.01,Rain,Light Rain,140,2013-09-29 21:59:00
4:15 PM,37.4,35.6,93,29.86,6.0,SSE,8.1,-,0.02,Rain,Light Rain,160,2013-09-29 22:15:00
4:21 PM,37.4,35.6,93,29.86,6.0,SSE,4.6,-,0.03,Rain,Light Rain,160,2013-09-29 22:21:00
4:29 PM,37.4,35.6,93,29.87,6.0,South,6.9,-,0.04,Rain,Light Rain,170,2013-09-29 22:29:00
4:51 PM,37.9,35.1,89,29.84,5.0,SSE,5.8,-,0.06,Rain,Light Rain,160,2013-09-29 22:51:00
5:51 PM,37.9,35.1,89,29.85,8.0,Calm,Calm,-,0.08,Rain,Light Rain,0,2013-09-29 23:51:00
6:51 PM,37.9,36.0,93,29.82,8.0,Calm,Calm,-,0.06,Rain,Light Rain,0,2013-09-30 00:51:00
7:51 PM,37.9,36.0,93,29.83,7.0,SSW,3.5,-,0.09,Rain,Light Rain,200,2013-09-30 01:51:00
8:04 PM,37.4,35.6,93,29.83,7.0,South,4.6,-,0.02,Rain,Light Rain,190,2013-09-30 02:04:00
8:44 PM,37.4,35.6,93,29.83,8.0,Calm,Calm,-,0.07,Rain,Light Rain,0,2013-09-30 02:44:00
8:51 PM,37.9,36.0,93,29.83,9.0,Calm,Calm,-,0.08,Rain,Light Rain,0,2013-09-30 02:51:00
9:51 PM,37.9,36.0,93,29.82,9.0,Calm,Calm,-,0.04,Rain,Light Rain,0,2013-09-30 03:51:00
10:07 PM,37.4,35.6,93,29.82,10.0,SSW,3.5,-,0.02,Rain,Light Rain,210,2013-09-30 04:07:00
10:29 PM,37.4,35.6,93,29.80,6.0,Calm,Calm,-,0.06,Rain,Rain,0,2013-09-30 04:29:00
10:51 PM,37.9,36.0,93,29.80,7.0,Calm,Calm,-,0.09,Rain,Light Rain,0,2013-09-30 04:51:00
11:51 PM,37.9,36.0,93,29.78,10.0,Calm,Calm,-,0.06,Rain,Light Rain,0,2013-09-30 05:51:00